Time,TemperatureF,DewpointF,PressureIn,WindDirection,WindDirectionDegrees,WindSpeedMPH,WindSpeedGustMPH,Humidity,HourlyPrecipIn,Conditions,Clouds,dailyrainin,SoftwareType,DateUTC
2013-02-17 00:00:00,47.9,27.9,30.07,SSE,158,0.2,3.4,46,0.00,,,0.00,WUHU216HW,2013-02-17 06:00:00,
2013-02-17 00:05:00,47.7,28.4,30.07,South,180,0.0,2.7,47,0.00,,,0.00,WUHU216HW,2013-02-17 06:05:00,
2013-02-17 00:10:00,47.7,28.4,30.07,East,90,0.0,1.8,47,0.00,,,0.00,WUHU216HW,2013-02-17 06:10:00,
2013-02-17 00:15:00,47.5,28.2,30.06,SSE,158,0.0,1.1,47,0.00,,,0.00,WUHU216HW,2013-02-17 06:15:00,
2013-02-17 00:20:00,47.5,28.2,30.06,SE,135,0.2,1.6,47,0.00,,,0.00,WUHU216HW,2013-02-17 06:20:00,
2013-02-17 00:25:00,47.5,28.2,30.06,SSW,203,1.3,1.6,47,0.00,,,0.00,WUHU216HW,2013-02-17 06:25:00,
2013-02-17 00:30:00,47.3,28.5,30.06,South,180,0.2,1.3,48,0.00,,,0.00,WUHU216HW,2013-02-17 06:30:00,
2013-02-17 00:35:00,47.2,28.4,30.05,SW,225,0.4,1.6,48,0.00,,,0.00,WUHU216HW,2013-02-17 06:35:00,
2013-02-17 00:40:00,47.2,28.4,30.05,East,90,0.4,1.6,48,0.00,,,0.00,WUHU216HW,2013-02-17 06:40:00,
2013-02-17 00:45:00,47.2,28.4,30.05,East,90,0.2,0.9,48,0.00,,,0.00,WUHU216HW,2013-02-17 06:45:00,
2013-02-17 00:50:00,47.0,28.7,30.05,NE,45,0.4,0.9,49,0.00,,,0.00,WUHU216HW,2013-02-17 06:50:00,
2013-02-17 00:55:00,46.8,28.6,30.05,NE,45,0.4,0.9,49,0.00,,,0.00,WUHU216HW,2013-02-17 06:55:00,
2013-02-17 01:00:00,46.8,28.6,30.05,NE,45,0.0,0.4,49,0.00,,,0.00,WUHU216HW,2013-02-17 07:00:00,
2013-02-17 01:05:00,46.8,28.6,30.04,SE,135,0.2,1.1,49,0.00,,,0.00,WUHU216HW,2013-02-17 07:05:00,
2013-02-17 01:10:00,46.6,28.5,30.04,East,90,0.2,1.1,49,0.00,,,0.00,WUHU216HW,2013-02-17 07:10:00,
2013-02-17 01:15:00,46.4,28.8,30.04,SSW,203,1.3,1.8,50,0.00,,,0.00,WUHU216HW,2013-02-17 07:15:00,
2013-02-17 01:20:00,46.4,28.8,30.04,South,180,0.2,2.2,50,0.00,,,0.00,WUHU216HW,2013-02-17 07:20:00,
2013-02-17 01:25:00,46.4,28.8,30.04,SSW,203,0.2,2.2,50,0.00,,,0.00,WUHU216HW,2013-02-17 07:25:00,
2013-02-17 01:30:00,46.4,28.8,30.04,SE,135,0.2,1.8,50,0.00,,,0.00,WUHU216HW,2013-02-17 07:30:00,
2013-02-17 01:35:00,46.4,28.8,30.04,SE,135,0.2,1.8,50,0.00,,,0.00,WUHU216HW,2013-02-17 07:35:00,
2013-02-17 01:40:00,46.3,28.6,30.04,ENE,68,1.8,1.8,50,0.00,,,0.00,WUHU216HW,2013-02-17 07:40:00,
2013-02-17 01:45:00,46.3,29.1,30.04,South,180,0.2,1.8,51,0.00,,,0.00,WUHU216HW,2013-02-17 07:45:00,
2013-02-17 01:50:00,46.3,29.1,30.04,SSE,158,0.2,1.8,51,0.00,,,0.00,WUHU216HW,2013-02-17 07:50:00,
2013-02-17 01:55:00,46.3,29.1,30.04,WNW,293,0.4,1.1,51,0.00,,,0.00,WUHU216HW,2013-02-17 07:55:00,
2013-02-17 02:00:00,46.3,29.1,30.04,SW,225,0.2,1.3,51,0.00,,,0.00,WUHU216HW,2013-02-17 08:00:00,
2013-02-17 02:05:00,46.1,28.9,30.03,SE,135,0.0,1.3,51,0.00,,,0.00,WUHU216HW,2013-02-17 08:05:00,
2013-02-17 02:10:00,46.1,28.9,30.03,SSE,158,0.0,1.3,51,0.00,,,0.00,WUHU216HW,2013-02-17 08:10:00,
2013-02-17 02:15:00,46.1,29.3,30.03,South,180,0.2,0.4,52,0.00,,,0.00,WUHU216HW,2013-02-17 08:15:00,
2013-02-17 02:20:00,46.1,29.3,30.02,SW,225,0.2,0.9,52,0.00,,,0.00,WUHU216HW,2013-02-17 08:20:00,
2013-02-17 02:25:00,46.1,29.3,30.02,SSE,158,0.4,1.1,52,0.00,,,0.00,WUHU216HW,2013-02-17 08:25:00,
2013-02-17 02:30:00,46.1,29.3,30.02,South,180,0.2,2.5,52,0.00,,,0.00,WUHU216HW,2013-02-17 08:30:00,
2013-02-17 02:35:00,46.1,29.3,30.01,SSE,158,0.4,2.5,52,0.00,,,0.00,WUHU216HW,2013-02-17 08:35:00,
2013-02-17 02:40:00,45.9,29.7,30.02,South,180,2.0,2.2,53,0.00,,,0.00,WUHU216HW,2013-02-17 08:40:00,
2013-02-17 02:45:00,45.9,29.3,30.01,SE,135,0.4,2.2,52,0.00,,,0.00,WUHU216HW,2013-02-17 08:45:00,
2013-02-17 02:50:00,45.9,29.7,30.01,South,180,0.0,1.6,53,0.00,,,0.00,WUHU216HW,2013-02-17 08:50:00,
2013-02-17 02:55:00,45.9,29.7,30.01,SSE,158,0.0,1.1,53,0.00,,,0.00,WUHU216HW,2013-02-17 08:55:00,
2013-02-17 03:00:00,45.9,29.7,30.01,SSE,158,0.4,1.8,53,0.00,,,0.00,WUHU216HW,2013-02-17 09:00:00,
2013-02-17 03:05:00,45.7,29.5,30.01,South,180,2.0,2.2,53,0.00,,,0.00,WUHU216HW,2013-02-17 09:05:00,
2013-02-17 03:10:00,45.7,29.5,30.00,SSE,158,2.5,2.5,53,0.00,,,0.00,WUHU216HW,2013-02-17 09:10:00,
2013-02-17 03:15:00,45.7,29.5,30.00,South,180,2.0,2.5,53,0.00,,,0.00,WUHU216HW,2013-02-17 09:15:00,
2013-02-17 03:20:00,45.7,30.0,30.00,South,180,2.5,3.1,54,0.00,,,0.00,WUHU216HW,2013-02-17 09:20:00,
2013-02-17 03:25:00,45.7,30.0,30.00,SSW,203,1.1,3.6,54,0.00,,,0.00,WUHU216HW,2013-02-17 09:25:00,
2013-02-17 03:30:00,45.5,30.2,29.99,SE,135,0.4,4.5,55,0.00,,,0.00,WUHU216HW,2013-02-17 09:30:00,
2013-02-17 03:35:00,45.5,30.2,29.99,South,180,4.0,4.5,55,0.00,,,0.00,WUHU216HW,2013-02-17 09:35:00,
2013-02-17 03:40:00,45.5,30.2,29.99,South,180,2.5,4.0,55,0.00,,,0.00,WUHU216HW,2013-02-17 09:40:00,
2013-02-17 03:45:00,45.5,30.2,29.99,ENE,68,2.9,4.0,55,0.00,,,0.00,WUHU216HW,2013-02-17 09:45:00,
2013-02-17 03:50:00,45.4,30.1,29.99,SSE,158,0.4,4.5,55,0.00,,,0.00,WUHU216HW,2013-02-17 09:50:00,
2013-02-17 03:55:00,45.4,30.5,29.99,SE,135,0.7,4.5,56,0.00,,,0.00,WUHU216HW,2013-02-17 09:55:00,
2013-02-17 04:00:00,45.4,30.1,29.99,South,180,0.2,4.0,55,0.00,,,0.00,WUHU216HW,2013-02-17 10:00:00,
2013-02-17 04:05:00,45.2,30.3,29.99,SE,135,0.4,2.9,56,0.00,,,0.00,WUHU216HW,2013-02-17 10:05:00,
2013-02-17 04:10:00,45.2,29.9,29.99,SSE,158,0.2,2.9,55,0.00,,,0.00,WUHU216HW,2013-02-17 10:10:00,
2013-02-17 04:15:00,45.2,30.3,29.99,SE,135,0.4,1.3,56,0.00,,,0.00,WUHU216HW,2013-02-17 10:15:00,
2013-02-17 04:20:00,45.2,30.3,29.99,South,180,2.5,2.7,56,0.00,,,0.00,WUHU216HW,2013-02-17 10:20:00,
2013-02-17 04:25:00,45.0,30.3,29.99,South,180,1.6,2.7,56,0.00,,,0.00,WUHU216HW,2013-02-17 10:25:00,
2013-02-17 04:30:00,45.0,30.3,29.99,SSW,203,0.4,2.5,56,0.00,,,0.00,WUHU216HW,2013-02-17 10:30:00,
2013-02-17 04:35:00,45.0,30.3,29.99,South,180,0.0,1.6,56,0.00,,,0.00,WUHU216HW,2013-02-17 10:35:00,
2013-02-17 04:40:00,45.0,30.3,29.99,South,180,0.2,1.3,56,0.00,,,0.00,WUHU216HW,2013-02-17 10:40:00,
2013-02-17 04:45:00,44.8,29.6,29.99,South,180,0.2,1.3,55,0.00,,,0.00,WUHU216HW,2013-02-17 10:45:00,
2013-02-17 04:50:00,44.8,29.6,29.99,South,180,0.0,0.9,55,0.00,,,0.00,WUHU216HW,2013-02-17 10:50:00,
2013-02-17 04:55:00,44.8,30.5,29.99,SSW,203,0.4,2.5,57,0.00,,,0.00,WUHU216HW,2013-02-17 10:55:00,
2013-02-17 05:00:00,44.6,29.9,29.99,South,180,0.7,2.5,56,0.00,,,0.00,WUHU216HW,2013-02-17 11:00:00,
2013-02-17 05:05:00,44.5,29.7,29.99,SSW,203,0.0,1.1,56,0.00,,,0.00,WUHU216HW,2013-02-17 11:05:00,
2013-02-17 05:10:00,44.3,29.5,29.99,SSW,203,0.0,1.1,56,0.00,,,0.00,WUHU216HW,2013-02-17 11:10:00,
2013-02-17 05:15:00,44.3,29.5,29.99,SW,225,0.0,1.1,56,0.00,,,0.00,WUHU216HW,2013-02-17 11:15:00,
2013-02-17 05:20:00,44.3,29.5,29.99,South,180,0.0,1.1,56,0.00,,,0.00,WUHU216HW,2013-02-17 11:20:00,
2013-02-17 05:25:00,44.3,30.0,29.99,South,180,0.0,0.4,57,0.00,,,0.00,WUHU216HW,2013-02-17 11:25:00,
2013-02-17 05:30:00,44.1,29.8,29.99,South,180,0.0,0.4,57,0.00,,,0.00,WUHU216HW,2013-02-17 11:30:00,
2013-02-17 05:35:00,44.1,29.8,29.99,South,180,0.0,0.7,57,0.00,,,0.00,WUHU216HW,2013-02-17 11:35:00,
2013-02-17 05:40:00,43.9,29.6,29.99,South,180,0.0,0.7,57,0.00,,,0.00,WUHU216HW,2013-02-17 11:40:00,
2013-02-17 05:45:00,43.7,29.4,29.99,South,180,0.0,0.2,57,0.00,,,0.00,WUHU216HW,2013-02-17 11:45:00,
2013-02-17 05:50:00,43.7,29.9,29.99,South,180,0.0,0.0,58,0.00,,,0.00,WUHU216HW,2013-02-17 11:50:00,
2013-02-17 05:55:00,43.6,29.7,29.99,South,180,0.0,0.0,58,0.00,,,0.00,WUHU216HW,2013-02-17 11:55:00,
2013-02-17 06:00:00,43.6,29.7,29.99,South,180,0.0,0.0,58,0.00,,,0.00,WUHU216HW,2013-02-17 12:00:00,
2013-02-17 06:05:00,43.6,29.7,29.99,SSE,158,0.0,0.2,58,0.00,,,0.00,WUHU216HW,2013-02-17 12:05:00,
2013-02-17 06:10:00,43.6,29.7,29.99,South,180,0.0,0.4,58,0.00,,,0.00,WUHU216HW,2013-02-17 12:10:00,
2013-02-17 06:15:00,43.4,29.5,29.98,South,180,0.0,0.4,58,0.00,,,0.00,WUHU216HW,2013-02-17 12:15:00,
2013-02-17 06:20:00,43.4,30.0,29.98,SSE,158,0.2,0.9,59,0.00,,,0.00,WUHU216HW,2013-02-17 12:20:00,
2013-02-17 06:25:00,43.4,30.0,29.98,South,180,0.0,0.9,59,0.00,,,0.00,WUHU216HW,2013-02-17 12:25:00,
2013-02-17 06:30:00,43.2,29.8,29.98,WSW,248,0.4,1.1,59,0.00,,,0.00,WUHU216HW,2013-02-17 12:30:00,
2013-02-17 06:35:00,43.2,29.8,29.98,SSE,158,0.7,1.6,59,0.00,,,0.00,WUHU216HW,2013-02-17 12:35:00,
2013-02-17 06:40:00,43.2,29.8,29.98,SSW,203,0.2,1.8,59,0.00,,,0.00,WUHU216HW,2013-02-17 12:40:00,
2013-02-17 06:45:00,43.2,29.8,29.98,South,180,0.2,1.8,59,0.00,,,0.00,WUHU216HW,2013-02-17 12:45:00,
2013-02-17 06:50:00,43.2,30.2,29.98,South,180,0.4,2.5,60,0.00,,,0.00,WUHU216HW,2013-02-17 12:50:00,
2013-02-17 06:55:00,43.0,30.1,29.98,South,180,0.2,2.5,60,0.00,,,0.00,WUHU216HW,2013-02-17 12:55:00,
2013-02-17 07:00:00,43.2,30.2,29.98,SSE,158,0.2,1.1,60,0.00,,,0.00,WUHU216HW,2013-02-17 13:00:00,
2013-02-17 07:05:00,43.2,30.2,29.98,SSW,203,0.0,1.1,60,0.00,,,0.00,WUHU216HW,2013-02-17 13:05:00,
2013-02-17 07:10:00,43.2,30.2,29.98,South,180,0.2,2.5,60,0.00,,,0.00,WUHU216HW,2013-02-17 13:10:00,
2013-02-17 07:15:00,43.0,30.1,29.98,SSE,158,0.0,2.5,60,0.00,,,0.00,WUHU216HW,2013-02-17 13:15:00,
2013-02-17 07:20:00,43.0,30.4,29.98,SW,225,0.9,2.0,61,0.00,,,0.00,WUHU216HW,2013-02-17 13:20:00,
2013-02-17 07:25:00,43.0,30.4,29.98,South,180,0.2,1.6,61,0.00,,,0.00,WUHU216HW,2013-02-17 13:25:00,
2013-02-17 07:30:00,43.0,30.4,29.98,SE,135,1.1,1.6,61,0.00,,,0.00,WUHU216HW,2013-02-17 13:30:00,
2013-02-17 07:35:00,43.2,30.6,29.98,South,180,2.0,2.0,61,0.00,,,0.00,WUHU216HW,2013-02-17 13:35:00,
2013-02-17 07:40:00,43.2,31.1,29.98,South,180,1.6,2.9,62,0.00,,,0.00,WUHU216HW,2013-02-17 13:40:00,
2013-02-17 07:45:00,43.4,31.2,29.98,South,180,2.2,3.8,62,0.00,,,0.00,WUHU216HW,2013-02-17 13:45:00,
2013-02-17 07:50:00,43.6,31.4,29.99,ESE,113,4.0,4.0,62,0.00,,,0.00,WUHU216HW,2013-02-17 13:50:00,
2013-02-17 07:55:00,43.9,31.8,29.99,SSW,203,2.9,4.7,62,0.00,,,0.00,WUHU216HW,2013-02-17 13:55:00,
2013-02-17 08:00:00,44.3,32.0,29.99,SSE,158,2.7,4.7,62,0.00,,,0.00,WUHU216HW,2013-02-17 14:00:00,
2013-02-17 08:05:00,44.5,32.2,29.99,South,180,3.1,5.4,62,0.00,,,0.00,WUHU216HW,2013-02-17 14:05:00,
2013-02-17 08:10:00,44.6,32.0,29.99,SSE,158,2.5,5.4,61,0.00,,,0.00,WUHU216HW,2013-02-17 14:10:00,
2013-02-17 08:15:00,44.6,32.0,29.99,SSE,158,1.8,3.4,61,0.00,,,0.00,WUHU216HW,2013-02-17 14:15:00,
2013-02-17 08:20:00,45.0,32.4,29.99,SSW,203,2.9,4.0,61,0.00,,,0.00,WUHU216HW,2013-02-17 14:20:00,
2013-02-17 08:25:00,45.2,32.1,29.99,South,180,4.9,6.0,60,0.00,,,0.00,WUHU216HW,2013-02-17 14:25:00,
2013-02-17 08:30:00,45.4,32.3,29.99,SSW,203,3.1,7.4,60,0.00,,,0.00,WUHU216HW,2013-02-17 14:30:00,
2013-02-17 08:35:00,45.7,32.7,29.99,SSW,203,4.7,7.4,60,0.00,,,0.00,WUHU216HW,2013-02-17 14:35:00,
2013-02-17 08:40:00,46.1,32.5,29.99,SSW,203,5.1,6.0,59,0.00,,,0.00,WUHU216HW,2013-02-17 14:40:00,
2013-02-17 08:45:00,46.4,32.9,29.99,SSW,203,5.8,8.5,59,0.00,,,0.00,WUHU216HW,2013-02-17 14:45:00,
2013-02-17 08:50:00,46.8,32.8,29.99,South,180,6.9,8.5,58,0.00,,,0.00,WUHU216HW,2013-02-17 14:50:00,
2013-02-17 08:55:00,47.2,33.6,29.99,SW,225,2.9,7.6,59,0.00,,,0.00,WUHU216HW,2013-02-17 14:55:00,
2013-02-17 09:00:00,47.3,33.3,29.99,SSW,203,3.8,7.6,58,0.00,,,0.00,WUHU216HW,2013-02-17 15:00:00,
2013-02-17 09:05:00,47.7,33.7,29.99,SSW,203,4.0,7.2,58,0.00,,,0.00,WUHU216HW,2013-02-17 15:05:00,
2013-02-17 09:10:00,47.9,33.4,29.99,WSW,248,3.8,8.1,57,0.00,,,0.00,WUHU216HW,2013-02-17 15:10:00,
2013-02-17 09:15:00,48.2,33.7,29.99,SW,225,3.8,8.1,57,0.00,,,0.00,WUHU216HW,2013-02-17 15:15:00,
2013-02-17 09:20:00,48.6,33.6,29.99,SW,225,5.6,6.3,56,0.00,,,0.00,WUHU216HW,2013-02-17 15:20:00,
2013-02-17 09:25:00,49.0,33.9,29.99,South,180,3.4,6.3,56,0.00,,,0.00,WUHU216HW,2013-02-17 15:25:00,
2013-02-17 09:30:00,49.5,34.4,29.99,SSW,203,2.9,5.6,56,0.00,,,0.00,WUHU216HW,2013-02-17 15:30:00,
2013-02-17 09:35:00,50.0,34.9,29.99,SW,225,5.6,5.6,56,0.00,,,0.00,WUHU216HW,2013-02-17 15:35:00,
2013-02-17 09:40:00,50.4,34.4,29.99,SW,225,6.3,6.9,54,0.00,,,0.00,WUHU216HW,2013-02-17 15:40:00,
2013-02-17 09:45:00,50.9,34.8,29.99,SSW,203,6.7,6.9,54,0.00,,,0.00,WUHU216HW,2013-02-17 15:45:00,
2013-02-17 09:50:00,51.8,34.3,29.99,SSW,203,7.6,7.6,51,0.00,,,0.00,WUHU216HW,2013-02-17 15:50:00,
2013-02-17 09:55:00,52.6,34.9,29.99,WSW,248,4.5,7.6,51,0.00,,,0.00,WUHU216HW,2013-02-17 15:55:00,
2013-02-17 10:00:00,53.5,34.2,29.99,South,180,5.4,6.9,48,0.00,,,0.00,WUHU216HW,2013-02-17 16:00:00,
2013-02-17 10:05:00,54.2,34.3,29.98,South,180,3.4,6.9,47,0.00,,,0.00,WUHU216HW,2013-02-17 16:05:00,
2013-02-17 10:10:00,54.4,34.5,29.98,SSW,203,3.6,8.1,47,0.00,,,0.00,WUHU216HW,2013-02-17 16:10:00,
2013-02-17 10:15:00,54.7,35.3,29.97,SE,135,1.3,8.1,48,0.00,,,0.00,WUHU216HW,2013-02-17 16:15:00,
2013-02-17 10:20:00,55.1,34.6,29.97,SSE,158,6.9,6.9,46,0.00,,,0.00,WUHU216HW,2013-02-17 16:20:00,
2013-02-17 10:25:00,55.8,35.2,29.97,SSW,203,7.4,7.4,46,0.00,,,0.00,WUHU216HW,2013-02-17 16:25:00,
2013-02-17 10:30:00,56.2,35.6,29.97,South,180,2.9,8.5,46,0.00,,,0.00,WUHU216HW,2013-02-17 16:30:00,
2013-02-17 10:35:00,56.7,34.9,29.97,SW,225,4.9,8.5,44,0.00,,,0.00,WUHU216HW,2013-02-17 16:35:00,
2013-02-17 10:40:00,57.6,35.7,29.97,SSE,158,6.7,7.8,44,0.00,,,0.00,WUHU216HW,2013-02-17 16:40:00,
2013-02-17 10:45:00,58.3,34.7,29.97,SSW,203,4.9,8.5,41,0.00,,,0.00,WUHU216HW,2013-02-17 16:45:00,
2013-02-17 10:50:00,58.7,35.0,29.97,SSW,203,2.5,8.5,41,0.00,,,0.00,WUHU216HW,2013-02-17 16:50:00,
2013-02-17 10:55:00,59.4,36.2,29.97,SSW,203,4.3,6.7,42,0.00,,,0.00,WUHU216HW,2013-02-17 16:55:00,
2013-02-17 11:00:00,59.9,36.1,29.97,SSE,158,3.4,7.6,41,0.00,,,0.00,WUHU216HW,2013-02-17 17:00:00,
2013-02-17 11:05:00,60.5,35.3,29.97,South,180,5.6,7.6,39,0.00,,,0.00,WUHU216HW,2013-02-17 17:05:00,
2013-02-17 11:10:00,61.0,36.6,29.96,SSE,158,2.0,8.5,40,0.00,,,0.00,WUHU216HW,2013-02-17 17:10:00,
2013-02-17 11:15:00,61.4,36.1,29.96,SE,135,2.5,8.5,39,0.00,,,0.00,WUHU216HW,2013-02-17 17:15:00,
2013-02-17 11:20:00,61.9,36.6,29.96,SE,135,6.5,8.3,39,0.00,,,0.00,WUHU216HW,2013-02-17 17:20:00,
2013-02-17 11:25:00,62.5,36.4,29.96,WSW,248,1.8,7.4,38,0.00,,,0.00,WUHU216HW,2013-02-17 17:25:00,
2013-02-17 11:30:00,62.8,36.0,29.96,SW,225,3.1,8.1,37,0.00,,,0.00,WUHU216HW,2013-02-17 17:30:00,
2013-02-17 11:35:00,63.4,35.0,29.96,SSW,203,8.3,8.3,35,0.00,,,0.00,WUHU216HW,2013-02-17 17:35:00,
2013-02-17 11:40:00,63.7,36.1,29.95,WSW,248,6.3,8.3,36,0.00,,,0.00,WUHU216HW,2013-02-17 17:40:00,
2013-02-17 11:45:00,64.1,37.1,29.95,SSE,158,5.4,8.3,37,0.00,,,0.00,WUHU216HW,2013-02-17 17:45:00,
2013-02-17 11:50:00,64.4,35.3,29.95,South,180,3.4,9.2,34,0.00,,,0.00,WUHU216HW,2013-02-17 17:50:00,
2013-02-17 11:55:00,64.8,36.4,29.94,South,180,6.3,9.2,35,0.00,,,0.00,WUHU216HW,2013-02-17 17:55:00,
2013-02-17 12:00:00,65.0,35.7,29.94,SSW,203,5.1,9.2,34,0.00,,,0.00,WUHU216HW,2013-02-17 18:00:00,
2013-02-17 12:05:00,65.2,37.4,29.94,SW,225,6.5,8.5,36,0.00,,,0.00,WUHU216HW,2013-02-17 18:05:00,
2013-02-17 12:10:00,65.3,36.1,29.94,WSW,248,4.0,8.5,34,0.00,,,0.00,WUHU216HW,2013-02-17 18:10:00,
2013-02-17 12:15:00,65.7,36.5,29.94,SW,225,8.3,9.8,34,0.00,,,0.00,WUHU216HW,2013-02-17 18:15:00,
2013-02-17 12:20:00,65.9,36.5,29.93,South,180,4.7,9.8,34,0.00,,,0.00,WUHU216HW,2013-02-17 18:20:00,
2013-02-17 12:25:00,66.2,36.9,29.93,SE,135,2.7,9.4,34,0.00,,,0.00,WUHU216HW,2013-02-17 18:25:00,
2013-02-17 12:30:00,66.6,37.9,29.92,SSE,158,2.0,8.5,35,0.00,,,0.00,WUHU216HW,2013-02-17 18:30:00,
2013-02-17 12:35:00,66.8,37.4,29.92,SSW,203,5.6,9.2,34,0.00,,,0.00,WUHU216HW,2013-02-17 18:35:00,
2013-02-17 12:40:00,67.0,36.1,29.91,SSW,203,7.4,11.9,32,0.00,,,0.00,WUHU216HW,2013-02-17 18:40:00,
2013-02-17 12:45:00,67.3,37.1,29.91,SSW,203,4.3,11.9,33,0.00,,,0.00,WUHU216HW,2013-02-17 18:45:00,
2013-02-17 12:50:00,67.5,37.3,29.91,WSW,248,3.4,8.9,33,0.00,,,0.00,WUHU216HW,2013-02-17 18:50:00,
2013-02-17 12:55:00,67.7,36.6,29.91,South,180,4.5,10.7,32,0.00,,,0.00,WUHU216HW,2013-02-17 18:55:00,
2013-02-17 13:00:00,67.7,36.6,29.90,SSW,203,6.3,13.6,32,0.00,,,0.00,WUHU216HW,2013-02-17 19:00:00,
2013-02-17 13:05:00,67.7,35.9,29.90,SSW,203,6.9,13.6,31,0.00,,,0.00,WUHU216HW,2013-02-17 19:05:00,
2013-02-17 13:10:00,68.0,36.2,29.89,SSW,203,10.5,12.5,31,0.00,,,0.00,WUHU216HW,2013-02-17 19:10:00,
2013-02-17 13:15:00,68.0,36.2,29.89,SE,135,9.6,12.1,31,0.00,,,0.00,WUHU216HW,2013-02-17 19:15:00,
2013-02-17 13:20:00,68.2,35.7,29.89,SSE,158,7.8,12.1,30,0.00,,,0.00,WUHU216HW,2013-02-17 19:20:00,
2013-02-17 13:25:00,68.2,36.4,29.89,SSE,158,3.4,11.4,31,0.00,,,0.00,WUHU216HW,2013-02-17 19:25:00,
2013-02-17 13:30:00,68.4,35.8,29.88,SSW,203,6.7,11.4,30,0.00,,,0.00,WUHU216HW,2013-02-17 19:30:00,
2013-02-17 13:35:00,68.8,36.1,29.87,SE,135,4.3,10.1,30,0.00,,,0.00,WUHU216HW,2013-02-17 19:35:00,
2013-02-17 13:40:00,68.9,35.3,29.87,SSW,203,7.8,11.2,29,0.00,,,0.00,WUHU216HW,2013-02-17 19:40:00,
2013-02-17 13:45:00,68.9,34.3,29.87,SW,225,8.1,13.4,28,0.00,,,0.00,WUHU216HW,2013-02-17 19:45:00,
2013-02-17 13:50:00,68.9,32.3,29.86,SW,225,10.7,13.6,26,0.00,,,0.00,WUHU216HW,2013-02-17 19:50:00,
2013-02-17 13:55:00,69.1,34.5,29.86,SE,135,13.6,13.6,28,0.00,,,0.00,WUHU216HW,2013-02-17 19:55:00,
2013-02-17 14:00:00,69.1,32.4,29.86,SW,225,6.9,14.5,26,0.00,,,0.00,WUHU216HW,2013-02-17 20:00:00,
2013-02-17 14:05:00,69.1,32.4,29.86,South,180,6.5,14.5,26,0.00,,,0.00,WUHU216HW,2013-02-17 20:05:00,
2013-02-17 14:10:00,69.3,32.6,29.86,SSE,158,11.9,13.4,26,0.00,,,0.00,WUHU216HW,2013-02-17 20:10:00,
2013-02-17 14:15:00,69.5,32.8,29.85,South,180,13.0,13.2,26,0.00,,,0.00,WUHU216HW,2013-02-17 20:15:00,
2013-02-17 14:20:00,69.8,33.0,29.85,South,180,13.4,13.4,26,0.00,,,0.00,WUHU216HW,2013-02-17 20:20:00,
2013-02-17 14:25:00,69.5,32.8,29.85,SSW,203,9.6,13.4,26,0.00,,,0.00,WUHU216HW,2013-02-17 20:25:00,
2013-02-17 14:30:00,69.7,31.9,29.84,South,180,9.2,13.4,25,0.00,,,0.00,WUHU216HW,2013-02-17 20:30:00,
2013-02-17 14:35:00,69.7,30.9,29.84,SSW,203,10.5,13.2,24,0.00,,,0.00,WUHU216HW,2013-02-17 20:35:00,
2013-02-17 14:40:00,69.8,31.1,29.84,SSE,158,11.2,13.2,24,0.00,,,0.00,WUHU216HW,2013-02-17 20:40:00,
2013-02-17 14:45:00,69.8,31.1,29.83,SW,225,14.3,16.8,24,0.00,,,0.00,WUHU216HW,2013-02-17 20:45:00,
2013-02-17 14:50:00,69.8,31.1,29.83,SW,225,11.4,16.8,24,0.00,,,0.00,WUHU216HW,2013-02-17 20:50:00,
2013-02-17 14:55:00,70.0,32.2,29.83,South,180,8.3,12.5,25,0.00,,,0.00,WUHU216HW,2013-02-17 20:55:00,
2013-02-17 15:00:00,70.2,32.3,29.83,SSW,203,7.4,12.5,25,0.00,,,0.00,WUHU216HW,2013-02-17 21:00:00,
2013-02-17 15:05:00,70.2,32.3,29.83,NNW,338,5.4,10.5,25,0.00,,,0.00,WUHU216HW,2013-02-17 21:05:00,
2013-02-17 15:10:00,70.4,31.5,29.83,West,270,7.4,14.3,24,0.00,,,0.00,WUHU216HW,2013-02-17 21:10:00,
2013-02-17 15:15:00,70.4,32.5,29.83,East,90,4.9,14.3,25,0.00,,,0.00,WUHU216HW,2013-02-17 21:15:00,
2013-02-17 15:20:00,70.4,31.5,29.82,SSW,203,10.5,13.2,24,0.00,,,0.00,WUHU216HW,2013-02-17 21:20:00,
2013-02-17 15:25:00,70.2,31.3,29.82,SSW,203,4.3,13.2,24,0.00,,,0.00,WUHU216HW,2013-02-17 21:25:00,
2013-02-17 15:30:00,70.2,32.3,29.82,SW,225,8.1,12.8,25,0.00,,,0.00,WUHU216HW,2013-02-17 21:30:00,
2013-02-17 15:35:00,70.2,32.3,29.82,South,180,2.5,14.8,25,0.00,,,0.00,WUHU216HW,2013-02-17 21:35:00,
2013-02-17 15:40:00,70.2,31.3,29.81,SW,225,10.1,15.0,24,0.00,,,0.00,WUHU216HW,2013-02-17 21:40:00,
2013-02-17 15:45:00,70.2,31.3,29.81,SW,225,8.5,15.0,24,0.00,,,0.00,WUHU216HW,2013-02-17 21:45:00,
2013-02-17 15:50:00,70.2,31.3,29.81,SW,225,6.7,16.3,24,0.00,,,0.00,WUHU216HW,2013-02-17 21:50:00,
2013-02-17 15:55:00,70.2,32.3,29.81,ESE,113,4.3,16.3,25,0.00,,,0.00,WUHU216HW,2013-02-17 21:55:00,
2013-02-17 16:00:00,70.2,32.3,29.81,SSW,203,8.5,12.1,25,0.00,,,0.00,WUHU216HW,2013-02-17 22:00:00,
2013-02-17 16:05:00,70.2,32.3,29.81,SSE,158,8.5,12.1,25,0.00,,,0.00,WUHU216HW,2013-02-17 22:05:00,
2013-02-17 16:10:00,70.2,31.3,29.81,SSW,203,9.6,12.1,24,0.00,,,0.00,WUHU216HW,2013-02-17 22:10:00,
2013-02-17 16:15:00,70.0,32.2,29.81,ESE,113,3.1,12.8,25,0.00,,,0.00,WUHU216HW,2013-02-17 22:15:00,
2013-02-17 16:20:00,69.8,32.0,29.80,SE,135,4.3,12.8,25,0.00,,,0.00,WUHU216HW,2013-02-17 22:20:00,
2013-02-17 16:25:00,69.7,31.9,29.80,South,180,11.9,14.3,25,0.00,,,0.00,WUHU216HW,2013-02-17 22:25:00,
2013-02-17 16:30:00,69.7,31.9,29.80,SSW,203,9.8,14.3,25,0.00,,,0.00,WUHU216HW,2013-02-17 22:30:00,
2013-02-17 16:35:00,69.7,31.9,29.80,SW,225,7.4,13.2,25,0.00,,,0.00,WUHU216HW,2013-02-17 22:35:00,
2013-02-17 16:40:00,69.5,31.8,29.80,SSW,203,10.7,13.0,25,0.00,,,0.00,WUHU216HW,2013-02-17 22:40:00,
2013-02-17 16:45:00,69.3,31.6,29.80,SSW,203,7.8,13.4,25,0.00,,,0.00,WUHU216HW,2013-02-17 22:45:00,
2013-02-17 16:50:00,69.3,31.6,29.80,SSW,203,11.0,13.6,25,0.00,,,0.00,WUHU216HW,2013-02-17 22:50:00,
2013-02-17 16:55:00,68.9,31.3,29.80,SW,225,12.8,14.5,25,0.00,,,0.00,WUHU216HW,2013-02-17 22:55:00,
2013-02-17 17:00:00,68.8,31.2,29.79,SSW,203,13.9,14.5,25,0.00,,,0.00,WUHU216HW,2013-02-17 23:00:00,
2013-02-17 17:06:00,68.8,32.1,29.79,SSE,158,3.8,13.9,26,0.00,,,0.00,WUHU216HW,2013-02-17 23:06:00,
2013-02-17 17:11:00,68.8,34.1,29.79,SSE,158,7.8,14.5,28,0.00,,,0.00,WUHU216HW,2013-02-17 23:11:00,
2013-02-17 17:16:00,68.6,33.9,29.79,SSE,158,2.2,14.5,28,0.00,,,0.00,WUHU216HW,2013-02-17 23:16:00,
2013-02-17 17:21:00,68.4,33.9,29.79,SE,135,6.3,10.5,28,0.00,,,0.00,WUHU216HW,2013-02-17 23:21:00,
2013-02-17 17:26:00,68.2,33.7,29.79,SSE,158,8.1,11.4,28,0.00,,,0.00,WUHU216HW,2013-02-17 23:26:00,
2013-02-17 17:31:00,68.0,33.5,29.79,South,180,4.5,14.3,28,0.00,,,0.00,WUHU216HW,2013-02-17 23:31:00,
2013-02-17 17:36:00,67.9,34.3,29.79,SE,135,3.4,14.3,29,0.00,,,0.00,WUHU216HW,2013-02-17 23:36:00,
2013-02-17 17:41:00,67.7,34.2,29.79,SW,225,6.9,12.8,29,0.00,,,0.00,WUHU216HW,2013-02-17 23:41:00,
2013-02-17 17:45:00,67.3,33.9,29.79,South,180,3.4,10.1,29,0.00,,,0.00,WUHU216HW,2013-02-17 23:45:00,
2013-02-17 17:50:00,67.1,34.7,29.79,WSW,248,5.8,12.5,30,0.00,,,0.00,WUHU216HW,2013-02-17 23:50:00,
2013-02-17 17:55:00,67.0,34.6,29.79,SSE,158,2.2,12.5,30,0.00,,,0.00,WUHU216HW,2013-02-17 23:55:00,
2013-02-17 18:00:00,66.8,35.2,29.79,SW,225,5.8,11.9,31,0.00,,,0.00,WUHU216HW,2013-02-18 00:00:00,
2013-02-17 18:05:00,66.6,35.0,29.79,SSW,203,10.3,10.7,31,0.00,,,0.00,WUHU216HW,2013-02-18 00:05:00,
2013-02-17 18:10:00,66.4,35.7,29.79,SSE,158,4.0,10.5,32,0.00,,,0.00,WUHU216HW,2013-02-18 00:10:00,
2013-02-17 18:15:00,66.2,35.5,29.79,ENE,68,1.6,10.5,32,0.00,,,0.00,WUHU216HW,2013-02-18 00:15:00,
2013-02-17 18:20:00,66.1,35.3,29.79,SW,225,8.5,10.1,32,0.00,,,0.00,WUHU216HW,2013-02-18 00:20:00,
2013-02-17 18:25:00,65.9,35.8,29.79,SSW,203,4.7,10.1,33,0.00,,,0.00,WUHU216HW,2013-02-18 00:25:00,
2013-02-17 18:30:00,65.9,35.8,29.79,SSE,158,5.1,9.4,33,0.00,,,0.00,WUHU216HW,2013-02-18 00:30:00,
2013-02-17 18:35:00,65.7,35.0,29.79,SW,225,9.2,10.1,32,0.00,,,0.00,WUHU216HW,2013-02-18 00:35:00,
2013-02-17 18:40:00,65.5,34.8,29.79,South,180,2.0,10.1,32,0.00,,,0.00,WUHU216HW,2013-02-18 00:40:00,
2013-02-17 18:45:00,65.3,34.7,29.79,South,180,3.4,9.8,32,0.00,,,0.00,WUHU216HW,2013-02-18 00:45:00,
2013-02-17 18:50:00,65.2,35.2,29.79,SSW,203,4.0,10.5,33,0.00,,,0.00,WUHU216HW,2013-02-18 00:50:00,
2013-02-17 18:55:00,65.2,35.2,29.79,SSW,203,6.5,10.5,33,0.00,,,0.00,WUHU216HW,2013-02-18 00:55:00,
2013-02-17 19:00:00,65.2,35.2,29.79,SSW,203,5.8,10.3,33,0.00,,,0.00,WUHU216HW,2013-02-18 01:00:00,
2013-02-17 19:05:00,65.0,35.0,29.80,West,270,4.5,8.9,33,0.00,,,0.00,WUHU216HW,2013-02-18 01:05:00,
2013-02-17 19:10:00,64.8,35.7,29.80,South,180,6.9,9.2,34,0.00,,,0.00,WUHU216HW,2013-02-18 01:10:00,
2013-02-17 19:15:00,64.6,35.5,29.80,South,180,9.6,9.6,34,0.00,,,0.00,WUHU216HW,2013-02-18 01:15:00,
2013-02-17 19:20:00,64.4,35.3,29.80,SSE,158,6.9,9.8,34,0.00,,,0.00,WUHU216HW,2013-02-18 01:20:00,
2013-02-17 19:25:00,64.4,35.3,29.80,South,180,2.5,9.8,34,0.00,,,0.00,WUHU216HW,2013-02-18 01:25:00,
2013-02-17 19:30:00,64.3,35.1,29.80,ESE,113,2.5,9.2,34,0.00,,,0.00,WUHU216HW,2013-02-18 01:30:00,
2013-02-17 19:35:00,64.1,36.4,29.80,South,180,2.2,9.2,36,0.00,,,0.00,WUHU216HW,2013-02-18 01:35:00,
2013-02-17 19:40:00,63.9,36.3,29.79,SW,225,4.9,9.6,36,0.00,,,0.00,WUHU216HW,2013-02-18 01:40:00,
2013-02-17 19:45:00,63.9,36.3,29.79,SSW,203,4.0,9.6,36,0.00,,,0.00,WUHU216HW,2013-02-18 01:45:00,
2013-02-17 19:50:00,63.7,36.8,29.80,South,180,6.9,9.2,37,0.00,,,0.00,WUHU216HW,2013-02-18 01:50:00,
2013-02-17 19:55:00,63.7,36.8,29.80,SSW,203,5.6,10.3,37,0.00,,,0.00,WUHU216HW,2013-02-18 01:55:00,
2013-02-17 20:00:00,63.5,36.6,29.80,SW,225,6.3,10.3,37,0.00,,,0.00,WUHU216HW,2013-02-18 02:00:00,
2013-02-17 20:05:00,63.4,36.5,29.80,SW,225,9.6,10.5,37,0.00,,,0.00,WUHU216HW,2013-02-18 02:05:00,
2013-02-17 20:10:00,63.4,36.5,29.80,SSW,203,6.3,11.0,37,0.00,,,0.00,WUHU216HW,2013-02-18 02:10:00,
2013-02-17 20:15:00,63.2,37.0,29.80,SSE,158,2.7,11.0,38,0.00,,,0.00,WUHU216HW,2013-02-18 02:15:00,
2013-02-17 20:20:00,63.2,37.0,29.80,South,180,6.7,9.6,38,0.00,,,0.00,WUHU216HW,2013-02-18 02:20:00,
2013-02-17 20:25:00,63.0,36.9,29.80,SSE,158,8.5,9.6,38,0.00,,,0.00,WUHU216HW,2013-02-18 02:25:00,
2013-02-17 20:30:00,63.0,36.9,29.80,SE,135,5.6,8.9,38,0.00,,,0.00,WUHU216HW,2013-02-18 02:30:00,
2013-02-17 20:35:00,63.0,36.9,29.80,SSE,158,5.8,10.5,38,0.00,,,0.00,WUHU216HW,2013-02-18 02:35:00,
2013-02-17 20:40:00,63.0,36.9,29.80,SW,225,6.5,10.5,38,0.00,,,0.00,WUHU216HW,2013-02-18 02:40:00,
2013-02-17 20:45:00,62.8,37.5,29.80,SSW,203,9.2,13.0,39,0.00,,,0.00,WUHU216HW,2013-02-18 02:45:00,
2013-02-17 20:50:00,62.8,37.5,29.80,SSW,203,5.4,13.0,39,0.00,,,0.00,WUHU216HW,2013-02-18 02:50:00,
2013-02-17 20:55:00,62.6,37.3,29.80,South,180,2.9,11.4,39,0.00,,,0.00,WUHU216HW,2013-02-18 02:55:00,
2013-02-17 21:00:00,62.6,37.3,29.80,South,180,3.8,10.7,39,0.00,,,0.00,WUHU216HW,2013-02-18 03:00:00,
2013-02-17 21:05:00,62.5,37.8,29.80,South,180,6.9,9.8,40,0.00,,,0.00,WUHU216HW,2013-02-18 03:05:00,
2013-02-17 21:10:00,62.3,38.3,29.80,South,180,5.4,12.5,41,0.00,,,0.00,WUHU216HW,2013-02-18 03:10:00,
2013-02-17 21:15:00,62.3,38.8,29.80,South,180,9.6,12.5,42,0.00,,,0.00,WUHU216HW,2013-02-18 03:15:00,
2013-02-17 21:20:00,62.3,39.4,29.80,WSW,248,5.8,11.9,43,0.00,,,0.00,WUHU216HW,2013-02-18 03:20:00,
2013-02-17 21:25:00,62.3,40.0,29.79,SW,225,7.2,15.4,44,0.00,,,0.00,WUHU216HW,2013-02-18 03:25:00,
2013-02-17 21:30:00,62.1,39.8,29.79,South,180,4.0,15.4,44,0.00,,,0.00,WUHU216HW,2013-02-18 03:30:00,
2013-02-17 21:35:00,62.1,40.4,29.79,East,90,10.5,15.9,45,0.00,,,0.00,WUHU216HW,2013-02-18 03:35:00,
2013-02-17 21:40:00,61.9,40.2,29.79,SSW,203,3.1,15.9,45,0.00,,,0.00,WUHU216HW,2013-02-18 03:40:00,
2013-02-17 21:45:00,61.9,40.8,29.80,SSE,158,4.7,14.1,46,0.00,,,0.00,WUHU216HW,2013-02-18 03:45:00,
2013-02-17 21:50:00,61.7,41.2,29.79,SW,225,5.8,15.7,47,0.00,,,0.00,WUHU216HW,2013-02-18 03:50:00,
2013-02-17 21:55:00,61.6,41.0,29.80,SSE,158,5.8,15.7,47,0.00,,,0.00,WUHU216HW,2013-02-18 03:55:00,
2013-02-17 22:00:00,61.4,40.9,29.80,SSE,158,2.9,15.7,47,0.00,,,0.00,WUHU216HW,2013-02-18 04:00:00,
2013-02-17 22:05:00,61.2,41.9,29.80,SSW,203,8.5,11.4,49,0.00,,,0.00,WUHU216HW,2013-02-18 04:05:00,
2013-02-17 22:10:00,61.0,41.7,29.80,SSW,203,12.5,13.4,49,0.00,,,0.00,WUHU216HW,2013-02-18 04:10:00,
2013-02-17 22:15:00,60.8,42.1,29.80,SE,135,5.8,13.4,50,0.00,,,0.00,WUHU216HW,2013-02-18 04:15:00,
2013-02-17 22:20:00,60.8,42.6,29.80,South,180,7.6,15.2,51,0.00,,,0.00,WUHU216HW,2013-02-18 04:20:00,
2013-02-17 22:25:00,60.8,43.1,29.80,SW,225,7.4,15.2,52,0.00,,,0.00,WUHU216HW,2013-02-18 04:25:00,
2013-02-17 22:30:00,60.7,43.4,29.80,SSW,203,10.5,14.3,53,0.00,,,0.00,WUHU216HW,2013-02-18 04:30:00,
2013-02-17 22:35:00,60.5,43.8,29.80,SSE,158,4.7,14.8,54,0.00,,,0.00,WUHU216HW,2013-02-18 04:35:00,
2013-02-17 22:40:00,60.3,43.6,29.80,SSW,203,6.9,14.8,54,0.00,,,0.00,WUHU216HW,2013-02-18 04:40:00,
2013-02-17 22:45:00,60.3,44.6,29.80,West,270,3.6,12.3,56,0.00,,,0.00,WUHU216HW,2013-02-18 04:45:00,
2013-02-17 22:50:00,60.1,44.4,29.80,SW,225,13.2,13.2,56,0.00,,,0.00,WUHU216HW,2013-02-18 04:50:00,
2013-02-17 22:55:00,60.1,43.8,29.81,SW,225,3.4,13.2,55,0.00,,,0.00,WUHU216HW,2013-02-18 04:55:00,
2013-02-17 23:00:00,59.9,44.6,29.81,SSW,203,5.8,13.2,57,0.00,,,0.00,WUHU216HW,2013-02-18 05:00:00,
2013-02-17 23:05:00,59.8,44.5,29.81,SW,225,10.7,13.9,57,0.00,,,0.00,WUHU216HW,2013-02-18 05:05:00,
2013-02-17 23:10:00,59.8,44.9,29.80,SSE,158,10.5,13.9,58,0.00,,,0.00,WUHU216HW,2013-02-18 05:10:00,
2013-02-17 23:15:00,59.8,44.9,29.80,SSE,158,6.0,13.9,58,0.00,,,0.00,WUHU216HW,2013-02-18 05:15:00,
2013-02-17 23:20:00,59.6,44.7,29.80,SSE,158,6.3,10.5,58,0.00,,,0.00,WUHU216HW,2013-02-18 05:20:00,
2013-02-17 23:25:00,59.4,44.7,29.80,East,90,7.6,10.5,58,0.00,,,0.00,WUHU216HW,2013-02-18 05:25:00,
2013-02-17 23:30:00,59.4,45.1,29.80,SW,225,9.2,10.3,59,0.00,,,0.00,WUHU216HW,2013-02-18 05:30:00,
2013-02-17 23:35:00,59.4,45.5,29.80,SW,225,8.3,13.6,60,0.00,,,0.00,WUHU216HW,2013-02-18 05:35:00,
2013-02-17 23:40:00,59.2,45.4,29.80,NW,315,4.9,13.6,60,0.00,,,0.00,WUHU216HW,2013-02-18 05:40:00,
2013-02-17 23:45:00,59.0,45.2,29.79,South,180,7.4,12.5,60,0.00,,,0.00,WUHU216HW,2013-02-18 05:45:00,
2013-02-17 23:50:00,59.0,45.2,29.79,South,180,4.7,9.8,60,0.00,,,0.00,WUHU216HW,2013-02-18 05:50:00,
2013-02-17 23:55:00,58.9,45.0,29.79,SSW,203,7.2,10.7,60,0.00,,,0.00,WUHU216HW,2013-02-18 05:55:00,